This is the latest recevied weather packets stored in our database for station/object KD9IXX-13. If no packets are shown the sender has not sent any weather packets the latest 10 day(s).
| Time | Temp. | Humidity | Pressure | Rain* | Wind** | Luminosity | Snow |
|---|---|---|---|---|---|---|---|
| 1777665002 | 8.89° C | 75% | 1018.6 hPa | 0 mm | - | 175 W/m² | - |
| 1777664702 | 8.89° C | 75% | 1018.8 hPa | 0 mm | - | 226 W/m² | - |
| 1777664402 | 8.33° C | 74% | 1018.7 hPa | 0 mm | - | 231 W/m² | - |
| 1777664102 | 8.89° C | 73% | 1018.7 hPa | 0 mm | - | 189 W/m² | - |
| 1777663802 | 8.33° C | 70% | 1018.6 hPa | 0 mm | - | 190 W/m² | - |
| 1777663502 | 8.33° C | 73% | 1018.8 hPa | 0 mm | - | 170 W/m² | - |
| 1777663202 | 8.89° C | 72% | 1018.7 hPa | 0 mm | - | 168 W/m² | - |
| 1777662902 | 8.33° C | 71% | 1018.8 hPa | 0 mm | - | 212 W/m² | - |
| 1777662602 | 8.89° C | 72% | 1018.7 hPa | 0 mm | - | 231 W/m² | - |
| 1777662302 | 8.89° C | 73% | 1018.8 hPa | 0 mm | - | 223 W/m² | - |
| 1777662002 | 8.33° C | 74% | 1018.6 hPa | 0 mm | - | 179 W/m² | - |
| 1777661702 | 8.89° C | 73% | 1018.5 hPa | 0 mm | - | 138 W/m² | - |
| 1777661401 | 8.33° C | 73% | 1018.4 hPa | 0 mm | - | 160 W/m² | - |
| 1777661102 | 9.44° C | 70% | 1018.4 hPa | 0 mm | - | 95 W/m² | - |
| 1777660802 | 9.44° C | 55% | 1018.5 hPa | 0 mm | - | 72 W/m² | - |
| 1777660502 | 9.44° C | 54% | 1018.4 hPa | 0 mm | - | 74 W/m² | - |
| 1777660203 | 10° C | 56% | 1018.3 hPa | 0 mm | - | 113 W/m² | - |
| 1777659602 | 10° C | 56% | 1018.4 hPa | 0 mm | - | 340 W/m² | - |
| 1777659302 | 10° C | 54% | 1018.5 hPa | 0 mm | - | 356 W/m² | - |
| 1777659002 | 9.44° C | 56% | 1018.2 hPa | 0 mm | - | 257 W/m² | - |
| 1777658702 | 9.44° C | 56% | 1018.1 hPa | 0 mm | - | 216 W/m² | - |
| 1777658402 | 9.44° C | 56% | 1018.4 hPa | 0 mm | - | 227 W/m² | - |
| 1777658102 | 9.44° C | 59% | 1018.1 hPa | 0 mm | - | 197 W/m² | - |
| 1777657803 | 9.44° C | 58% | 1018.2 hPa | 0 mm | - | 232 W/m² | - |
| 1777657502 | 9.44° C | 58% | 1018.1 hPa | 0 mm | - | 156 W/m² | - |
* Rain latest hour (hover to see other rain measurements)
** Current wind speed in m/s (hover to see current wind gust speed)